TimeHST,TemperatureF,Dew PointF,Humidity,Sea Level PressureIn,VisibilityMPH,Wind Direction,Wind SpeedMPH,Gust SpeedMPH,PrecipitationIn,Events,Conditions,WindDirDegrees,DateUTC
12:53 AM,78.1,64.9,64,30.00,10.0,ESE,8.1,-,N/A,,Overcast,120,2012-09-16 10:53:00
1:53 AM,78.1,60.1,54,30.00,10.0,East,3.5,-,N/A,,Overcast,80,2012-09-16 11:53:00
2:53 AM,78.1,60.1,54,29.98,10.0,Calm,Calm,-,N/A,,Mostly Cloudy,0,2012-09-16 12:53:00
3:53 AM,77.0,64.0,64,29.98,10.0,ESE,3.5,-,N/A,,Partly Cloudy,120,2012-09-16 13:53:00
4:53 AM,75.9,63.0,64,29.99,10.0,NNE,4.6,-,N/A,,Clear,30,2012-09-16 14:53:00
5:53 AM,73.9,61.0,64,30.01,10.0,ENE,3.5,-,N/A,,Clear,70,2012-09-16 15:53:00
6:53 AM,73.9,62.1,66,30.01,10.0,Calm,Calm,-,N/A,,Clear,0,2012-09-16 16:53:00
7:53 AM,79.0,61.0,54,30.02,10.0,North,5.8,-,N/A,,Clear,360,2012-09-16 17:53:00
8:53 AM,80.1,61.0,52,30.03,10.0,West,5.8,-,N/A,,Clear,260,2012-09-16 18:53:00
9:53 AM,82.0,64.0,54,30.03,10.0,WSW,9.2,-,N/A,,Clear,240,2012-09-16 19:53:00
10:53 AM,82.0,64.9,56,30.02,10.0,WSW,11.5,-,N/A,,Clear,240,2012-09-16 20:53:00
11:53 AM,82.9,64.9,54,30.00,10.0,WSW,10.4,-,N/A,,Clear,240,2012-09-16 21:53:00
12:53 PM,82.9,64.9,54,29.99,10.0,SSW,10.4,-,N/A,,Mostly Cloudy,210,2012-09-16 22:53:00
1:53 PM,84.0,64.0,51,29.98,10.0,SSW,11.5,-,N/A,,Partly Cloudy,200,2012-09-16 23:53:00
2:53 PM,84.0,66.0,55,29.96,10.0,SSW,12.7,-,N/A,,Mostly Cloudy,200,2012-09-17 00:53:00
3:53 PM,82.9,66.0,56,29.95,10.0,South,10.4,-,N/A,,Mostly Cloudy,190,2012-09-17 01:53:00
4:53 PM,81.0,66.0,60,29.96,10.0,SSW,10.4,-,N/A,,Overcast,210,2012-09-17 02:53:00
5:53 PM,80.1,66.0,62,29.97,10.0,SW,10.4,-,N/A,,Overcast,230,2012-09-17 03:53:00
6:53 PM,79.0,66.9,66,29.99,10.0,SW,6.9,-,N/A,,Mostly Cloudy,230,2012-09-17 04:53:00
7:53 PM,79.0,66.9,66,30.01,10.0,WSW,4.6,-,N/A,,Overcast,250,2012-09-17 05:53:00
8:53 PM,78.1,64.9,64,30.02,10.0,NNW,8.1,-,N/A,,Mostly Cloudy,340,2012-09-17 06:53:00
9:29 PM,78.8,60.8,54,30.02,10.0,NE,15.0,-,N/A,,Mostly Cloudy,40,2012-09-17 07:29:00
9:53 PM,78.1,60.1,54,30.03,10.0,NNE,12.7,-,N/A,,Partly Cloudy,30,2012-09-17 07:53:00
10:53 PM,78.1,59.0,52,30.02,10.0,NE,16.1,-,N/A,,Overcast,40,2012-09-17 08:53:00
11:53 PM,77.0,61.0,58,30.00,10.0,NE,15.0,-,N/A,,Clear,40,2012-09-17 09:53:00